| time (UTC) | temp C | wind direction | speed KPH | gust KPH | rain 1hr cm | rain 24hr cm | rain mn cm | humidity % | barometer mb |
| 20260505100047 | 12 | 74 | 1.6 | 6.4 | 0.00 | 0.00 | 0.00 | 56 | 1007.9 |
| 20260505094544 | 11 | 86 | 1.6 | 8.0 | 0.00 | 0.00 | 0.00 | 55 | 1008.0 |
| 20260505093050 | 11 | 76 | 0.0 | 4.8 | 0.00 | 0.00 | 0.00 | 57 | 1008.1 |
| 20260505091543 | 11 | 71 | 0.0 | 8.0 | 0.00 | 0.00 | 0.00 | 57 | 1008.2 |
| 20260505090043 | 11 | 44 | 0.0 | 3.2 | 0.00 | 0.00 | 0.00 | 57 | 1007.9 |
| 20260505084547 | 12 | 50 | 0.0 | 4.8 | 0.00 | 0.00 | 0.00 | 57 | 1008.0 |
| 20260505083048 | 11 | 31 | 1.6 | 9.7 | 0.00 | 0.00 | 0.00 | 56 | 1007.7 |
| 20260505081548 | 12 | 95 | 1.6 | 6.4 | 0.00 | 0.00 | 0.00 | 59 | 1007.1 |
| 20260505080039 | 11 | 44 | 0.0 | 4.8 | 0.00 | 0.00 | 0.00 | 59 | 1006.8 |
| 20260505074538 | 11 | 28 | 1.6 | 4.8 | 0.00 | 0.00 | 0.00 | 62 | 1006.6 |
| 20260505073038 | 11 | 65 | 1.6 | 6.4 | 0.00 | 0.00 | 0.00 | 70 | 1006.6 |
| 20260505071537 | 10 | 81 | 0.0 | 4.8 | 0.00 | 0.00 | 0.00 | 78 | 1006.6 |
| 20260505070043 | 10 | 53 | 0.0 | 1.6 | 0.00 | 0.00 | 0.00 | 82 | 1006.7 |
| 20260505064535 | 11 | 39 | 0.0 | 0.0 | 0.00 | 0.00 | 0.00 | 81 | 1007.5 |
| 20260505063034 | 11 | 71 | 0.0 | 1.6 | 0.00 | 0.00 | 0.00 | 77 | 1006.5 |
| 20260505061527 | 12 | 44 | 1.6 | 6.4 | 0.00 | 0.00 | 0.00 | 70 | 1007.9 |
| 20260505060028 | 15 | 5 | 1.6 | 11.3 | 0.00 | 0.00 | 0.00 | 61 | 1007.7 |
| 20260505054518 | 17 | 51 | 3.2 | 29.0 | 0.00 | 0.00 | 0.00 | 43 | 1005.9 |
| 20260505053019 | 17 | 54 | 3.2 | 20.9 | 0.00 | 0.00 | 0.00 | 42 | 1005.4 |
| 20260505051516 | 18 | 49 | 1.6 | 16.1 | 0.00 | 0.00 | 0.00 | 41 | 1005.0 |
| 20260505050113 | 19 | 59 | 1.6 | 16.1 | 0.00 | 0.00 | 0.00 | 41 | 1004.4 |
| 20260505041504 | 21 | 56 | 0.0 | 14.5 | 0.00 | 0.00 | 0.00 | 42 | 1003.9 |
| 20260505040003 | 21 | 26 | 3.2 | 20.9 | 0.00 | 0.00 | 0.00 | 41 | 1003.1 |
| 20260505034502 | 21 | 54 | 0.0 | 4.8 | 0.00 | 0.00 | 0.00 | 46 | 1003.5 |
| 20260505033002 | 20 | 22 | 0.0 | 4.8 | 0.00 | 0.00 | 0.00 | 63 | 1003.1 |
| 20260505031501 | 20 | 41 | 0.0 | 0.0 | 0.00 | 0.00 | 0.00 | 71 | 1002.9 |
| 20260505030003 | 20 | 191 | 0.0 | 0.0 | 0.00 | 0.00 | 0.00 | 70 | 1002.1 |
| 20260505024600 | 20 | 180 | 0.0 | 0.0 | 0.00 | 0.00 | 0.00 | 69 | 1001.8 |
| 20260505023103 | 20 | 188 | 0.0 | 0.0 | 0.00 | 0.00 | 0.00 | 68 | 1001.7 |
| 20260505021600 | 21 | 173 | 0.0 | 0.0 | 0.00 | 0.00 | 0.00 | 68 | 1001.4 |
| 20260505020100 | 21 | 173 | 0.0 | 3.2 | 0.00 | 0.00 | 0.00 | 68 | 1001.4 |
| 20260505014558 | 21 | 182 | 0.0 | 1.6 | 0.00 | 0.00 | 0.00 | 68 | 1001.2 |
| 20260505013101 | 21 | 165 | 0.0 | 0.0 | 0.00 | 0.00 | 0.00 | 69 | 1000.9 |
| 20260505011611 | 22 | 236 | 0.0 | 0.0 | 0.00 | 0.00 | 0.00 | 68 | 1000.8 |
| 20260505010057 | 23 | 236 | 0.0 | 0.0 | 0.00 | 0.00 | 0.00 | 68 | 1000.5 |
| 20260505004610 | 24 | 236 | 0.0 | 0.0 | 0.00 | 0.00 | 0.00 | 63 | 1000.4 |
| 20260505003057 | 25 | 236 | 0.0 | 0.0 | 0.00 | 0.00 | 0.00 | 63 | 1000.5 |
| 20260505001613 | 25 | 237 | 0.0 | 0.0 | 0.00 | 0.00 | 0.00 | 58 | 1000.5 |
| 20260505000107 | 26 | 237 | 0.0 | 0.0 | 0.00 | 0.00 | 0.00 | 56 | 1000.6 |
| 20260504234556 | 26 | 202 | 0.0 | 0.0 | 0.00 | 0.00 | 0.00 | 51 | 1000.6 |
| 20260504233106 | 26 | 214 | 0.0 | 0.0 | 0.00 | 0.00 | 0.00 | 48 | 1000.8 |
| 20260504231550 | 26 | 237 | 0.0 | 0.0 | 0.00 | 0.00 | 0.00 | 46 | 1000.7 |
| 20260504230052 | 26 | 238 | 0.0 | 4.8 | 0.00 | 0.00 | 0.00 | 45 | 1000.7 |
| 20260504224549 | 26 | 211 | 0.0 | 3.2 | 0.00 | 0.00 | 0.00 | 43 | 1000.6 |
| 20260504223049 | 27 | 232 | 1.6 | 4.8 | 0.00 | 0.00 | 0.00 | 42 | 1000.6 |
| 20260504221548 | 27 | 360 | 0.0 | 11.3 | 0.00 | 0.00 | 0.00 | 42 | 1000.6 |
| 20260504220048 | 28 | 215 | 0.0 | 12.9 | 0.00 | 0.00 | 0.00 | 43 | 1000.7 |
| 20260504214547 | 27 | 266 | 0.0 | 0.0 | 0.00 | 0.00 | 0.00 | 39 | 1000.8 |
| 20260504213049 | 28 | 266 | 0.0 | 3.2 | 0.00 | 0.00 | 0.00 | 39 | 1000.8 |
| 20260504211544 | 28 | 190 | 0.0 | 1.6 | 0.00 | 0.00 | 0.00 | 40 | 1000.8 |
| 20260504210043 | 28 | 170 | 0.0 | 11.3 | 0.00 | 0.00 | 0.00 | 40 | 1001.1 |
| 20260504204542 | 27 | 226 | 0.0 | 17.7 | 0.00 | 0.00 | 0.00 | 41 | 1001.4 |
| 20260504203047 | 27 | 223 | 0.0 | 20.9 | 0.00 | 0.00 | 0.00 | 41 | 1001.6 |
| 20260504201541 | 28 | 213 | 1.6 | 12.9 | 0.00 | 0.00 | 0.00 | 42 | 1001.4 |
| 20260504200039 | 28 | 271 | 0.0 | 4.8 | 0.00 | 0.00 | 0.00 | 40 | 1001.6 |
| 20260504194538 | 28 | 197 | 0.0 | 12.9 | 0.00 | 0.00 | 0.00 | 39 | 1001.7 |
| 20260504193037 | 27 | 220 | 1.6 | 4.8 | 0.00 | 0.00 | 0.00 | 40 | 1001.8 |
| 20260504191535 | 28 | 236 | 0.0 | 9.7 | 0.00 | 0.00 | 0.00 | 40 | 1001.6 |
| 20260504190037 | 27 | 360 | 1.6 | 8.0 | 0.00 | 0.00 | 0.00 | 40 | 1001.7 |
| 20260504184533 | 28 | 360 | 0.0 | 9.7 | 0.00 | 0.00 | 0.00 | 44 | 1001.7 |
| 20260504183030 | 28 | 360 | 0.0 | 8.0 | 0.00 | 0.00 | 0.00 | 44 | 1001.8 |
| 20260504181529 | 27 | 360 | 0.0 | 6.4 | 0.00 | 0.00 | 0.00 | 46 | 1001.8 |
| 20260504180027 | 27 | 192 | 0.0 | 8.0 | 0.00 | 0.00 | 0.00 | 43 | 1001.9 |
| 20260504174526 | 27 | 297 | 0.0 | 1.6 | 0.00 | 0.00 | 0.00 | 42 | 1002.0 |
| 20260504173024 | 27 | 305 | 0.0 | 1.6 | 0.00 | 0.00 | 0.00 | 42 | 1002.0 |
| 20260504171531 | 26 | 360 | 0.0 | 12.9 | 0.00 | 0.00 | 0.00 | 43 | 1002.2 |